Terminal Aerodrome Forecast
Issued by NWS Grand Rapids, MI

Home | Current Version | Previous Version | Text Only | Print | Product List | Glossary On
Versions: 1 2 3 4 5 6 7 8 9 10 11 12 13 14 15 16 17 18 19 20 21 22 23 24 25 26
000
FTUS43 KGRR 211700
TAFGRR
TAF
KGRR 211740Z 2118/2218 12007KT P6SM SCT015 BKN100
      TEMPO 2118/2119 BKN015
     FM211930 16007KT 5SM -SHRA BR VCTS OVC025CB
     FM212300 17007KT P6SM SCT060 BKN120
     FM220400 17006KT P6SM VCTS SCT035CB BKN060
     FM221100 17005KT P6SM SCT060 BKN120=

USA.gov is the U.S. government's official web portal to all federal, state and local government web resources and services.